Location: Prairie View Elementary School
(39.8322°N, 99.5698°W)
Time: 03:23:22
(UTC+00:00)

STARLINK-52 - Pass Details

Date: 08 December 2019
Orbit: 442 x 445 km, 53.0° (Epoch: 27 January)

Event Time Altitude Azimuth Distance (km) Brightness Sun altitude
Rises 01:19:08 0° 231° (SW) 2,421 7.9 -23.5°
Reaches altitude 10° 01:21:14 10° 233° (SW) 1,555 6.8 -23.9°
Enters shadow 01:23:43 43° 240° (WSW) 628 4.3 -24.3°
